SCP
0 0 0 0 0 0 -0 0 0 0 0 0 0 0 0 0 0 0 -0 0 0 0 0 0 0 0 0 0 0 0 0 0 0 0 0 0 0 0 0 0 0 0 0 0 0 0 0 0 0
0 0 0 0 0 0 0 0 0 0 0 0 0 0 0 0 0 0 -0 0 0 0 0 0 0 0 0 0 0 0 0 0 0 0 0 0 0 0 0 0 0 0 0 0 0 0 0 0 0
0 0 0 0 0 0 0 0 0 0 0 0 0 0 0 0 0 0 -0 0 0 0 0 0 0 0 0 0 0 0 0 0 0 0 0 0 0 0 0 0 0 0 0 0 0 0 0 0 0
0 0 0 0 0 0 0 0 0 0 0 0 0 0 0 0 0 0 0 0 0 0 0 0 0 0 0 0 0 0 0 0 0 0 0 0 0 0 0 0 0 0 0 0 0 0 0 0 0
0 0 0 -0 -0 0 0 0 0 0 0 0 0 0 0 0 0 0 0 0 0 0 0 0 0 0 0 0 0 0 0 0 0 0 0 0 0 0 0 0 0 0 0 0 0 0 0 0 0
0 0 0 -0 -0 0 0 0 0 0 0 0 0 0 0 0 0 0 0 0 0 0 0 0 0 0 0 0 0 0 0 0 0 0 0 0 0 0 0 0 0 0 0 0 0 0 0 0 0
0 0 0 0 0 0 0 0 0 0 0 0 0 0 0 0 0 0 0 0 0 0 0 0 0 0 0 0 0 0 0 0 0 0 0 0 0 0 0 0 0 0 0 0 0 0 0 0 0
0 0 0 0 0 0 0 0 0 0 0 0 0 0 0 0 0 0 0 0 -0 -0 -0 0 0 0 0 0 0 0 0 0 0 0 0 0 0 0 0 0 0 0 0 0 0 0 0 0 0
0 0 0 0 0 0 0 0 0 0 0 0 0 0 0 0 0 0 0 0 0 0 -0 -0 0 0 0 0 0 0 0 0 0 0 0 0 0 0 0 0 0 0 0 0 0 0 0 0 0
0 0 0 0 0 0 0 0 0 0 0 0 0 0 0 0 0 0 0 0 0 0 0 -0 0 0 0 0 0 0 0 0 0 0 0 0 0 0 0 0 0 0 0 0 0 0 0 0 0
0 0 0 0 0 0 0 0 0 0 0 0 0 0 1 0 0 0 0 0 0 0 0 -0 -0 0 0 0 0 0 0 0 0 0 0 0 0 0 0 0 0 0 0 0 0 0 0 0 0
0 0 0 0 0 0 0 0 0 0 0 0 0 1 1 0 0 0 0 0 0 0 0 -0 -0 -0 0 0 0 0 0 0 0 0 0 0 0 0 0 0 0 0 0 0 0 0 0 0 0
0 0 0 0 0 0 0 0 0 0 0 0 0 1 1 0 0 0 0 0 0 0 0 0 0 0 0 0 0 0 0 0 0 0 0 0 0 0 0 0 0 0 0 0 0 0 0 0 0
0 0 0 0 0 0 0 0 0 0 0 0 0 0 1 0 0 0 0 0 0 0 0 0 0 0 0 0 0 0 0 0 0 0 0 0 0 0 0 0 0 0 0 0 0 0 0 0 0
0 0 0 0 0 0 0 0 0 0 0 0 0 0 0 0 0 0 0 0 0 0 0 0 0 0 0 0 0 0 0 0 0 0 0 0 0 0 0 0 0 0 0 0 0 0 0 0 0
0 0 0 0 0 0 0 0 0 0 0 0 0 0 0 0 0 0 0 0 0 0 0 0 0 0 0 0 0 0 0 0 0 0 0 0 0 0 0 0 0 0 0 0 0 0 0 0 0
0 0 0 0 0 0 0 0 0 0 0 0 0 0 0 0 0 0 0 0 0 0 0 0 0 0 0 0 0 0 0 0 0 0 0 0 0 0 0 0 0 0 0 0 0 0 0 0 0
0 0 0 0 0 0 0 0 0 0 0 0 0 0 0 0 0 0 0 0 0 0 0 0 0 0 0 0 0 0 0 0 0 0 0 0 0 0 0 0 0 0 0 0 0 0 0 0 0
0 0 0 0 0 0 0 0 0 0 0 0 0 0 0 0 0 0 0 0 0 0 0 0 0 0 0 0 0 0 0 0 0 0 0 0 0 0 0 0 0 0 0 0 0 0 0 0 0
0 0 0 0 0 0 0 0 0 0 0 0 0 0 0 0 0 0 0 0 0 0 0 0 0 0 0 0 0 0 0 0 0 0 0 0 0 0 0 0 0 0 0 0 0 0 0 0 0
0 0 0 0 0 0 0 0 0 0 0 0 0 0 0 0 0 0 0 0 0 0 0 0 0 0 0 0 0 0 0 0 0 0 0 0 0 0 0 0 0 0 0 0 0 0 0 0 0
0 0 0 0 0 0 0 0 0 0 0 0 0 0 0 0 0 0 0 0 0 0 0 0 0 0 0 0 0 0 0 0 0 0 0 0 0 0 0 0 0 0 0 0 0 0 0 0 0
0 0 0 0 0 0 0 0 0 0 0 0 0 0 0 0 0 0 0 0 0 0 0 0 0 0 0 0 0 0 0 0 0 0 0 0 0 0 0 0 0 0 0 0 0 0 0 0 0
0 0 0 0 0 0 0 0 0 0 0 0 0 0 0 0 0 0 0 0 0 0 0 0 0 0 0 0 0 0 0 0 0 0 0 0 0 0 0 0 0 0 0 0 0 0 0 0 0
0 0 0 0 0 0 0 0 0 0 0 0 0 0 0 0 0 0 0 1 0 0 0 0 0 0 0 0 0 0 0 0 0 0 0 0 0 0 0 0 0 0 0 0 0 0 0 0 0
0 0 0 0 0 0 0 0 0 0 0 0 0 0 0 0 0 0 1 1 0 0 0 0 1 1 1 0 0 0 0 0 0 0 0 0 0 0 0 0 0 0 0 0 0 0 0 0 0
0 0 0 0 0 0 0 0 0 0 0 0 0 0 0 0 0 0 0 1 0 0 0 0 0 0 0 0 0 0 0 0 0 0 0 0 0 0 0 0 0 0 0 0 0 0 0 0 0
0 0 0 0 0 0 0 0 0 0 0 0 0 0 0 0 0 0 0 0 0 0 0 0 0 0 0 0 0 0 0 0 0 0 0 0 0 0 0 0 0 0 0 0 0 0 0 0 0
0 0 0 0 0 0 0 0 0 0 0 0 0 0 0 0 0 0 0 0 0 0 0 0 0 0 0 0 0 0 0 0 0 0 0 0 0 0 0 0 0 0 0 0 0 0 0 0 0
0 0 0 0 0 0 0 0 0 0 0 0 0 0 0 0 0 0 1 1 0 0 0 0 0 0 0 0 0 0 0 0 0 0 0 0 0 0 0 0 0 0 0 0 0 0 0 0 0
Wind_Speed
2 2 2 2 6 7 4 3 1 3 3 3 6 7 7 4 2 4 2 6 7 5 4 7 10 11 11 12 12 12 13 13 13 13 13 13 14 14 14 14 14 14 15 15 14 14 15 14 15
2 3 1 4 7 4 3 3 3 3 5 5 6 7 7 5 4 7 4 5 7 6 4 6 10 11 11 11 11 11 12 12 12 12 12 13 13 13 13 13 13 13 14 14 14 14 14 14 14
2 1 4 5 5 3 2 1 5 5 4 3 5 6 5 4 5 5 5 8 7 5 4 6 10 10 10 11 10 10 11 11 11 11 12 12 12 12 12 12 12 12 13 13 13 13 13 13 13
2 3 5 6 4 1 3 3 6 6 5 6 5 6 5 4 5 6 9 9 7 5 4 5 10 10 10 10 10 10 10 10 11 11 10 11 11 11 11 11 12 11 12 12 12 12 12 12 12
3 5 7 5 2 2 2 4 3 4 3 4 5 6 4 4 9 11 10 9 7 5 3 4 9 10 9 9 9 9 9 9 10 10 10 10 10 10 10 10 10 11 11 11 11 11 11 11 11
5 5 6 2 2 2 2 2 3 6 5 5 5 5 3 4 9 9 8 7 5 5 4 4 9 9 9 8 8 8 8 8 9 9 9 9 9 9 9 9 9 9 10 10 10 9 9 9 9
5 5 4 3 2 1 2 3 4 5 5 4 5 6 3 4 6 8 7 6 5 4 3 2 3 5 8 8 7 7 7 8 7 7 8 8 8 8 8 7 8 8 8 8 8 8 8 8 8
4 6 4 1 3 2 3 3 4 5 5 5 5 7 6 6 8 8 7 5 4 3 3 2 2 3 2 3 6 7 6 7 7 7 7 6 6 6 6 5 6 7 7 7 7 7 7 6 6
4 6 2 4 5 3 5 4 3 3 6 4 4 5 7 14 12 9 7 4 4 4 2 2 2 2 2 2 4 4 5 5 5 4 5 5 3 3 3 3 5 5 5 5 5 5 5 4 4
5 4 4 4 5 6 6 5 6 5 4 3 6 8 14 14 12 11 9 8 7 6 4 3 3 3 2 2 2 1 1 2 2 2 2 2 2 1 2 1 2 3 3 3 3 3 3 3 1
3 4 3 1 3 6 7 5 4 8 4 6 11 15 16 14 11 10 9 8 7 6 5 4 4 3 2 1 1 1 1 1 1 1 1 1 1 1 1 1 1 1 1 1 2 2 1 1 1
2 1 1 2 3 5 7 5 4 4 4 7 13 17 17 15 13 11 10 8 5 5 5 5 4 3 3 2 1 1 1 1 1 1 1 1 1 0 0 1 1 1 1 1 1 1 1 0 1
2 2 2 3 6 6 6 4 3 1 4 12 14 15 14 13 10 8 7 6 5 6 6 5 5 5 3 2 2 2 2 2 1 1 2 2 2 1 1 1 1 1 0 0 1 0 1 1 1
0 2 3 4 5 3 6 3 3 2 8 12 13 12 12 12 10 8 7 7 7 7 7 5 5 5 4 3 3 2 2 2 2 2 3 3 3 2 2 2 2 2 2 1 1 2 1 1 1
2 5 6 4 3 3 6 3 1 5 10 11 10 10 10 9 8 9 10 9 9 8 6 6 6 5 5 5 4 3 2 2 2 3 3 4 4 4 3 3 3 3 2 2 1 1 1 2 2
5 6 3 3 2 2 6 3 3 8 11 10 9 9 8 8 8 8 9 8 8 7 7 7 7 6 5 5 4 3 2 2 2 2 3 4 5 5 4 3 4 3 2 2 2 1 1 2 2
6 3 0 2 0 2 3 4 3 7 10 9 9 8 8 7 7 7 8 9 9 9 8 7 6 6 6 5 3 2 2 2 2 2 3 3 4 5 4 4 4 3 2 2 3 2 2 2 3
1 1 1 3 2 3 2 3 4 7 9 9 8 7 7 8 9 7 7 8 8 7 7 6 6 5 5 3 2 1 1 1 2 2 3 3 3 4 4 3 4 3 3 3 3 3 2 2 2
4 3 2 3 1 2 2 2 4 7 7 8 8 8 8 9 7 5 5 6 6 6 6 7 6 5 4 3 2 2 2 2 2 2 3 3 2 3 3 3 3 3 3 4 4 3 3 3 2
3 2 1 1 1 2 1 2 3 7 9 9 10 9 9 7 5 5 5 6 7 7 7 6 6 6 5 3 2 2 2 1 1 1 1 2 2 3 3 3 3 3 3 3 3 3 2 2 2
2 4 4 2 2 4 3 4 2 3 4 4 6 7 7 9 9 8 7 6 6 7 8 7 6 5 5 4 2 1 1 1 0 1 1 2 2 2 2 3 3 3 4 4 4 4 4 3 2
3 4 4 4 4 1 2 2 6 3 3 6 7 8 9 9 9 8 8 7 8 8 6 6 5 5 5 5 4 4 2 2 2 1 1 2 2 2 3 3 4 4 3 4 4 4 4 4 3
4 2 4 4 4 3 3 1 8 1 4 8 9 10 9 9 9 9 10 9 8 7 6 5 5 5 5 5 5 4 3 3 1 1 1 2 2 2 3 3 3 3 3 4 4 3 4 4 4
6 7 7 6 6 1 2 2 8 4 7 6 7 9 9 8 8 7 6 5 5 6 6 6 6 5 5 5 4 5 4 3 1 1 2 2 2 2 3 2 2 2 2 3 4 3 4 3 3
5 7 5 5 4 5 2 2 10 8 6 6 7 8 7 6 7 7 7 7 6 7 7 6 6 5 5 5 4 4 3 3 3 2 2 2 2 2 3 2 2 2 2 3 2 3 3 3 3
5 9 9 6 5 4 1 5 9 6 4 3 3 4 4 5 6 8 8 8 7 7 6 6 6 5 4 5 4 3 3 2 2 2 2 2 2 2 2 1 1 2 1 1 1 2 2 2 3
7 4 7 8 3 0 4 6 9 3 3 1 2 3 4 5 6 7 7 7 7 7 6 6 6 5 5 4 4 3 3 2 2 1 1 1 1 1 1 1 1 2 2 1 1 0 0 1 1
6 10 7 7 6 2 4 4 5 5 4 1 2 4 4 4 5 6 6 6 6 6 5 4 5 4 3 3 3 2 2 2 1 1 1 1 1 1 2 2 2 2 3 2 2 2 1 1 0
5 5 6 6 6 7 2 8 7 7 6 5 4 4 4 5 5 6 5 5 5 6 5 5 4 4 3 3 3 2 2 2 2 2 1 1 2 2 2 2 2 3 3 2 2 2 2 2 1
5 8 9 7 4 4 5 9 5 5 5 5 4 4 4 4 4 5 5 6 5 5 4 4 4 4 3 3 3 3 3 3 3 2 2 2 2 2 2 2 2 3 3 3 3 3 3 2 2
Wind_Direction
186 158 143 88 56 50 37 4 84 88 64 64 84 83 90 71 104 134 126 130 125 123 120 120 117 111 106 103 101 100 99 99 99 99 100 100 99 99 99 100 100 101 103 103 103 103 103 104 105
162 160 98 59 73 61 358 353 79 86 133 123 84 75 74 66 67 104 123 133 124 122 116 125 123 117 112 107 105 103 102 102 102 101 101 101 100 100 99 99 100 102 103 103 103 104 105 106 106
183 146 80 67 78 128 159 80 109 104 108 94 81 67 74 98 117 129 144 132 117 117 118 134 126 121 116 111 108 107 105 104 104 104 103 103 101 100 99 99 99 101 103 103 103 105 107 108 108
101 53 53 66 70 178 167 153 130 116 70 59 90 76 70 94 130 133 132 130 121 118 123 137 130 125 120 116 112 109 109 107 106 105 103 104 103 102 102 101 101 102 104 104 104 105 107 109 111
64 72 58 51 32 36 104 140 127 100 80 71 86 87 57 44 106 122 129 130 128 125 128 139 136 131 126 121 117 114 111 109 107 107 105 104 105 105 105 105 106 106 106 106 106 106 106 110 112
58 65 74 69 44 57 107 119 98 89 92 91 89 92 68 107 118 128 126 124 126 128 127 136 142 137 132 129 124 120 116 112 111 110 109 109 107 108 107 108 108 108 109 109 109 108 108 112 114
91 85 112 137 117 120 150 108 113 118 113 115 113 99 102 132 126 123 116 113 116 118 116 113 127 134 139 138 134 129 124 120 118 116 114 113 113 113 111 111 113 113 114 113 113 114 113 114 115
113 96 89 135 149 175 138 106 111 120 109 114 112 132 161 160 129 116 109 108 117 118 121 117 106 104 115 137 146 142 137 133 131 128 122 117 111 110 112 111 118 120 119 119 117 116 116 117 118
88 76 136 193 175 173 141 122 130 95 114 122 113 137 146 136 130 125 124 128 150 162 154 141 129 125 126 149 166 153 150 144 134 129 126 104 69 64 83 107 121 122 123 123 118 115 113 115 114
83 114 212 204 180 157 145 138 147 122 124 103 86 100 125 139 145 151 160 169 178 185 186 173 166 160 158 177 128 91 97 98 86 71 85 88 82 62 75 75 121 131 129 125 119 115 102 92 83
117 173 222 204 157 136 134 135 132 132 180 184 155 143 145 151 157 166 175 181 188 188 191 186 186 182 178 165 132 118 92 95 104 117 116 101 84 47 35 25 18 26 63 57 58 59 62 101 127
117 259 190 149 131 130 138 134 125 169 215 159 149 148 153 162 171 178 181 185 179 183 201 194 188 190 195 185 171 163 153 155 182 192 175 148 128 88 27 360 353 8 27 54 36 24 3 1 218
58 337 9 93 102 111 104 108 127 138 107 121 133 147 161 170 178 182 179 176 177 193 204 200 192 196 195 191 205 193 195 197 212 219 206 188 183 200 193 229 233 236 216 204 238 251 263 277 267
12 37 48 78 95 109 114 99 95 130 126 129 145 160 171 178 177 173 175 182 190 199 207 199 198 198 191 198 209 210 205 207 211 220 214 199 199 202 206 223 238 241 230 224 230 233 234 257 258
64 60 37 40 85 125 108 58 161 153 139 144 159 169 177 182 180 187 189 192 193 196 200 197 200 197 197 208 216 219 210 203 219 228 216 206 204 203 203 215 232 237 231 230 237 251 244 248 248
50 58 45 317 74 122 124 208 200 156 151 159 171 177 183 189 193 196 194 195 191 190 194 199 200 194 199 209 216 215 207 202 221 230 221 216 212 207 204 214 229 227 210 206 215 230 243 255 246
34 77 119 296 165 131 143 214 194 165 160 172 182 185 186 192 202 201 197 194 192 192 192 191 193 191 193 202 207 209 207 212 218 219 222 218 215 211 207 218 227 215 207 210 221 208 207 238 245
182 145 223 244 252 141 175 226 177 178 176 183 189 192 192 199 209 201 194 192 191 189 187 188 190 191 182 178 175 188 212 230 224 220 226 222 216 210 206 221 227 212 212 218 217 217 209 220 233
149 154 221 255 262 148 200 226 198 184 189 194 199 199 201 210 209 195 191 186 181 182 182 184 183 184 167 161 173 181 213 221 226 225 225 226 220 208 205 231 232 217 219 222 214 210 217 227 196
137 158 228 306 31 112 136 278 226 192 205 203 201 203 202 203 197 193 195 188 186 188 190 184 185 182 182 182 171 175 178 200 216 234 242 232 223 214 215 218 232 227 225 231 223 209 208 221 184
174 184 192 181 42 45 68 340 289 233 216 212 207 202 197 199 201 197 197 201 195 191 191 191 187 184 184 178 150 117 83 40 18 286 273 267 247 232 229 228 231 230 222 228 226 213 209 221 214
227 218 165 138 103 352 75 279 284 251 233 220 216 207 206 205 203 193 192 200 201 195 182 180 177 181 180 171 169 171 179 215 228 227 252 280 261 243 231 233 232 234 230 231 234 218 212 207 221
191 93 100 98 108 56 28 146 286 294 247 238 222 215 212 205 201 198 194 196 194 180 171 175 174 183 185 181 180 177 195 214 222 245 273 282 284 269 254 245 240 237 235 233 234 224 214 210 212
126 74 58 49 66 44 255 173 277 243 226 238 222 216 212 199 193 192 181 169 170 163 169 175 178 188 177 174 176 181 192 193 204 256 279 286 287 285 280 269 253 246 240 235 230 222 220 221 219
96 91 49 18 20 251 270 201 252 258 241 225 219 216 209 188 176 166 162 170 171 169 176 175 178 187 177 175 179 184 192 190 207 235 254 277 294 294 294 290 276 263 250 240 227 221 225 216 212
158 135 150 173 202 265 312 237 260 275 274 245 214 197 179 168 164 166 173 173 173 175 175 171 176 175 169 175 179 178 184 193 220 236 240 251 261 277 296 304 308 306 296 268 220 224 233 211 218
133 150 150 124 139 115 284 289 301 313 334 15 153 159 170 171 169 166 169 172 172 168 168 172 170 167 172 178 173 173 180 182 209 231 233 256 281 297 339 1 10 13 25 35 66 61 238 192 215
135 141 108 114 135 208 293 282 259 275 276 283 177 179 180 165 159 158 165 167 162 150 146 148 156 160 159 157 165 162 166 166 162 136 118 55 13 19 42 41 37 39 47 48 66 70 67 89 84
110 100 105 110 143 149 215 268 233 232 229 222 214 194 180 170 166 164 157 149 136 128 134 143 140 134 136 143 139 130 130 125 115 102 75 61 46 43 44 46 47 44 49 54 64 61 64 70 50
153 157 144 144 181 159 163 261 273 242 228 203 193 180 166 155 151 142 135 128 127 124 124 132 132 140 146 139 128 124 116 108 102 90 68 64 60 53 54 55 56 51 50 55 68 62 57 57 49